Location: Sevilla
(37.3933°N, 5.9839°W)
Time: 05:31:15
(UTC+02:00)

Transit 2A - Pass Details

Date: 26 June 2024
Orbit: 591 x 960 km, 66.7° (Epoch: 15 July)

Event Time Altitude Azimuth Distance (km) Brightness Sun altitude
Rises 16:36:37 0° 219° (SW) 2,988 9.4 58.9°
Reaches altitude 10° 16:38:51 10° 224° (SW) 2,127 8.9 58.5°
Maximum altitude 16:43:35 54° 302° (WNW) 898 7.8 57.6°
Drops below altitude 10° 16:48:54 10° 19° (NNE) 2,379 8.5 56.6°
Sets 16:51:32 0° 24° (NNE) 3,376 9.1 56.1°
